NOAA 16 DEB, 41130

Orbit data source: Space-Track

NOAA 16 DEB, 41130 is space debris in SSO originally from a launch on Thu, 21 Sep 2000 UTC launched from the Air Force Western Test Range (AFWTR). Debris objects in space refer to the collection of defunct objects orbiting the Earth. Examples of debris include non-operational satellites, rocket bodies, and fragments generated from explosions, collisions, or faulty payload assembly.

Loading next visibility...
Identifier
41130, 2000-055BM
Orbit
SSO
Country
Flag of USUS
Related business
Manufacturer
Unknown
Mission
Spacecraft
Bus & Motor
Unknown
Mass
Unknown
Launch date (UTC)
2000-09-21 (25 years ago)
Launch vehicle
Unknown
Launch site
Air Force Western Test Range (AFWTR)
Object type
Payload
Rocket body
Debris
Shape & HBR
Unknown shape, 0.1 m
Radar Cross Section
Small (<0.1 m²)

Expand to show TLE details & history
Last TLE update: 10 hours ago

TLE from 10 hours ago
0 NOAA 16 DEB
1 41130U 00055BM  25300.20042831  .00006818  00000-0  22611-2 0  9996
2 41130  98.9316  83.4088 0019527 122.3221 237.9859 14.38035209513293
Epoch: 2025-10-27T04:48Z
TLE epoch observation values (Epoch: 2025-10-27T04:48:37.005Z)
Latitude
-0.00004°
Longitude
-24.55107°
Altitude
775.345 km
Speed
7.462 km/s
True Right ascension
05h 33m 38s
True Declination
0° 00' 00"
Sunlit
Object was in full shadow at epoch
Visualization orbit readout
Latitude
Unknown
Longitude
Unknown
Altitude
Unknown
Speed
Unknown
Apparent Right ascension
Unknown
Apparent Declination
Unknown
Sunlit
N/A
Visualization observer readout
Local Sidereal Time
09:58:02
Azimuth
Unknown
Elevation
Unknown
Doppler factor
Unknown
Orbital elements
Apogee altitude
776.086 km
Perigee altitude
748.2 km
Semi-major axis
7,140.28 km
Eccentricity
0.00195
Inclination
98.9316°
RAAN
83.4088°
Arg. of periapsis
122.3221°
True anomaly
237.79641°
Mean anomaly
237.9859°
Eccentric anomaly
237.89113°
Mean motion
3.59725 °/min
Orbital period
100.08 mins
BSTAR
0.0022611
Loading maneuver chart data...
Computing Atmospheric mass density...
Loading historical data...
Loading historical data...
Loading historical data...
Loading historical data...
Loading historical data...
Loading historical data...
Loading historical data...

Documentation

Showing up to 5 results
|